User: anonymous   Login
Location: Unspecified
(0.0000°N, 0.0000°E)
Time: 19:11:11
(UTC+00:00)
Language:

GONETS M03 - Orbit

View from above orbital plane
View from above orbital plane
View from above satellite
View from above satellite

Ground track
Ground track

The orbit data is extracted from the following two-line orbital elements,

1 38734U 12041B   18140.37496230  .00000004  00000-0 -40987-4 0  9998
2 38734  82.4717 112.1759 0017431  39.2582 320.9759 12.44796993263715
Epoch (UTC): 20 May 2018 08:59:56
Eccentricity: 0.0017431
inclination: 82.4717°
perigee height: 1472 km
apogee height: 1500 km
right ascension of ascending node: 112.1759°
argument of perigee: 39.2582°
revolutions per day: 12.44796993
mean anomaly at epoch: 320.9759°
orbit number at epoch: 26371

The dashed part of the orbit path shows where the satellite is in the earth's shadow,  

DLR